EW0704 Weather Reports


Display with metric or nautical units.
time (UTC)temp
F
wind
direction
speed
MPH
gust
MPH
rain 1hr
in
rain 24hr
in
rain mn
in
humidity
%
barometer
mb
20260506171907 61 181 1.0 9.0 0.00 0.00 0.01 77 1008.6
20260506165723 61 190 3.0 9.0 0.00 0.00 0.00 74 1009.3
20260506164711 62 194 3.0 13.0 0.00 0.00 0.00 73 1009.3
20260506163637 62 210 4.0 13.0 0.00 0.00 0.00 72 1009.3
20260506162624 63 228 3.0 18.0 0.00 0.00 0.00 72 1009.3
20260506161609 63 208 4.0 18.0 0.00 0.00 0.00 72 1009.3
20260506160617 63 149 4.0 16.0 0.00 0.00 0.00 71 1009.4
20260506154454 63 232 4.0 14.0 0.00 0.00 0.00 70 1009.7
20260506153505 63 205 4.0 13.0 0.00 0.00 0.00 70 1009.6
20260506152504 63 179 4.0 13.0 0.00 0.00 0.00 70 1009.9
20260506151444 64 206 4.0 19.0 0.00 0.00 0.00 70 1009.6
20260506150412 63 217 6.0 19.0 0.00 0.00 0.00 70 1009.5
20260506145354 64 173 7.0 19.0 0.00 0.00 0.00 69 1009.6
20260506144335 64 233 6.0 18.0 0.00 0.00 0.00 68 1009.6
20260506143350 65 192 6.0 19.0 0.00 0.00 0.00 68 1009.6
20260506142323 65 190 6.0 19.0 0.00 0.00 0.00 66 1009.7
20260506141334 65 201 4.0 16.0 0.00 0.00 0.00 68 1009.7
20260506140344 65 195 4.0 23.0 0.00 0.00 0.00 69 1009.7
20260506135351 64 197 7.0 23.0 0.00 0.00 0.00 69 1010.0
20260506134317 64 213 6.0 16.0 0.00 0.00 0.00 70 1009.9
20260506133304 63 172 4.0 16.0 0.00 0.00 0.00 72 1009.7
20260506132249 62 182 4.0 16.0 0.00 0.00 0.00 73 1009.6
20260506131230 62 174 4.0 14.0 0.00 0.00 0.00 73 1009.7
20260506130205 62 147 4.0 14.0 0.00 0.00 0.00 74 1009.6
20260506125226 62 204 3.0 14.0 0.00 0.00 0.00 75 1009.6
20260506124203 61 230 4.0 14.0 0.00 0.00 0.00 75 1009.9
20260506123144 61 184 4.0 13.0 0.00 0.00 0.00 75 1010.0
20260506120941 60 196 4.0 18.0 0.00 0.00 0.00 78 1010.2
20260506115916 59 158 4.0 18.0 0.00 0.00 0.00 79 1010.1
20260506114854 58 180 4.0 16.0 0.00 0.00 0.00 80 1010.1
20260506112715 57 199 3.0 12.0 0.00 0.00 0.00 82 1010.1
20260506111658 57 166 3.0 9.0 0.00 0.00 0.00 82 1010.0
20260506110626 56 182 1.0 11.0 0.00 0.00 0.00 82 1010.2
20260506105623 56 193 3.0 13.0 0.00 0.00 0.00 83 1010.2
20260506104614 56 171 3.0 13.0 0.00 0.00 0.00 82 1010.2
20260506103609 55 195 1.0 8.0 0.00 0.00 0.00 82 1009.9
20260506102634 55 205 1.0 6.0 0.00 0.00 0.00 82 1010.2
20260506101639 55 197 0.0 6.0 0.00 0.00 0.00 82 1010.1
20260506100637 55 208 1.0 0.0 0.00 0.00 0.00 81 1010.1
20260506095622 55 187 1.0 8.0 0.00 0.00 0.00 81 1010.1
20260506094615 55 191 0.0 6.0 0.00 0.00 0.00 81 1010.0
20260506093546 56 199 1.0 9.0 0.00 0.00 0.00 81 1010.0
20260506092543 56 248 1.0 9.0 0.00 0.00 0.00 81 1009.9
20260506091541 56 178 1.0 9.0 0.00 0.00 0.00 81 1010.0
20260506090540 56 195 1.0 9.0 0.00 0.00 0.00 80 1010.0
20260506084429 56 149 3.0 12.0 0.00 0.00 0.00 80 1010.2
20260506081213 56 193 1.0 11.0 0.00 0.00 0.00 79 1010.2
20260506080220 56 182 1.0 11.0 0.00 0.00 0.00 79 1010.1
20260506073058 57 209 1.0 9.0 0.00 0.00 0.00 78 1010.4
20260506072119 57 173 0.0 6.0 0.00 0.00 0.00 77 1010.4
20260506071135 57 208 3.0 12.0 0.00 0.00 0.00 77 1010.5
20260506070131 57 202 1.0 12.0 0.00 0.00 0.00 76 1010.4
20260506061904 59 205 3.0 9.0 0.00 0.00 0.00 74 1010.3
20260506060913 59 169 1.0 9.0 0.00 0.00 0.00 73 1010.3
20260506050840 61 198 4.0 12.0 0.00 0.00 0.00 71 1010.7
20260506043635 61 189 4.0 13.0 0.00 0.00 0.00 69 1010.7
20260506042622 61 201 3.0 13.0 0.00 0.00 0.00 68 1010.9
20260506041630 62 154 4.0 13.0 0.00 0.00 0.00 67 1010.9
20260506034305 62 192 4.0 14.0 0.00 0.00 0.00 66 1010.8
20260506033311 62 180 4.0 14.0 0.00 0.00 0.00 66 1010.8
20260506032314 62 218 4.0 13.0 0.00 0.00 0.00 65 1010.9
20260506031315 62 211 4.0 13.0 0.00 0.00 0.00 65 1010.9
20260506030313 62 188 4.0 12.0 0.00 0.00 0.00 65 1010.9
20260506025323 62 225 4.0 12.0 0.00 0.00 0.00 64 1010.9
20260506024326 62 198 4.0 16.0 0.00 0.00 0.00 64 1011.0
20260506020007 62 212 4.0 13.0 0.00 0.00 0.00 63 1010.7
20260506015029 62 170 4.0 12.0 0.00 0.00 0.00 62 1010.6
20260506014039 63 213 3.0 20.0 0.00 0.00 0.00 62 1010.5
20260506013012 63 196 4.0 20.0 0.00 0.00 0.00 61 1010.4
20260506011943 63 226 4.0 20.0 0.00 0.00 0.00 61 1010.2
20260506010944 63 136 4.0 20.0 0.00 0.00 0.00 60 1010.1
20260506005923 63 166 4.0 18.0 0.00 0.00 0.00 59 1010.0
20260506004938 64 213 4.0 16.0 0.00 0.00 0.00 58 1009.8
20260506003948 64 160 4.0 14.0 0.00 0.00 0.00 58 1009.7
20260506002919 64 189 6.0 16.0 0.00 0.00 0.00 57 1009.5
20260506001910 65 222 6.0 24.0 0.00 0.00 0.00 56 1009.4
20260506000857 65 206 7.0 24.0 0.00 0.00 0.00 55 1009.4
20260505235829 65 154 6.0 22.0 0.00 0.00 0.00 54 1009.3
20260505233738 66 205 7.0 26.0 0.00 0.00 0.00 54 1009.2
20260505232711 67 121 6.0 18.0 0.00 0.00 0.00 54 1009.0
20260505230614 68 171 4.0 20.0 0.00 0.00 0.00 53 1008.7
20260505225622 68 210 4.0 20.0 0.00 0.00 0.00 53 1008.6
20260505224636 68 140 4.0 12.0 0.00 0.00 0.00 53 1008.5
20260505223625 68 170 4.0 14.0 0.00 0.00 0.00 53 1008.5
20260505222612 69 179 4.0 16.0 0.00 0.00 0.00 53 1008.7
20260505221547 69 193 6.0 16.0 0.00 0.00 0.00 52 1008.7
20260505220553 70 208 6.0 16.0 0.00 0.00 0.00 51 1008.7
20260505215551 71 210 6.0 19.0 0.00 0.00 0.00 50 1008.6
20260505214524 72 192 6.0 19.0 0.00 0.00 0.00 49 1008.5
20260505213538 72 195 6.0 23.0 0.00 0.00 0.00 48 1008.2
20260505212558 73 179 6.0 24.0 0.00 0.00 0.00 47 1008.3
20260505210416 73 208 7.0 19.0 0.00 0.00 0.00 47 1008.2
20260505205435 74 219 6.0 19.0 0.00 0.00 0.00 46 1008.3
20260505204415 74 166 7.0 23.0 0.00 0.00 0.00 45 1008.2
20260505203350 76 211 7.0 23.0 0.00 0.00 0.00 44 1008.2
20260505202356 77 200 4.0 12.0 0.00 0.00 0.00 44 1008.3
20260505201405 76 162 4.0 16.0 0.00 0.00 0.00 43 1008.4
20260505195310 77 193 6.0 20.0 0.00 0.00 0.00 43 1008.5
20260505194311 77 225 6.0 20.0 0.00 0.00 0.00 43 1008.6
20260505193238 77 233 6.0 20.0 0.00 0.00 0.00 43 1008.6
20260505192256 77 174 7.0 20.0 0.00 0.00 0.00 43 1008.7
20260505191310 77 188 4.0 23.0 0.00 0.00 0.00 42 1008.9
20260505190254 77 192 6.0 23.0 0.00 0.00 0.00 43 1009.0
20260505185226 78 167 4.0 18.0 0.00 0.00 0.00 43 1009.1
20260505183009 78 211 4.0 22.0 0.00 0.00 0.00 44 1009.3
20260505182001 77 136 6.0 22.0 0.00 0.00 0.00 44 1009.2
20260505180945 78 192 6.0 18.0 0.00 0.00 0.00 44 1009.2
20260505180008 77 125 4.0 19.0 0.00 0.00 0.00 45 1009.2
20260505174935 77 189 6.0 23.0 0.00 0.00 0.00 45 1009.2
20260505173919 77 211 8.0 23.0 0.00 0.00 0.00 44 1009.4
20260505172852 77 165 4.0 18.0 0.00 0.00 0.00 44 1009.5